#timestamp,LO_Frequency,Hit 
1500888925.3,286045517.3,Y
1500888935.2,286045778.8,Y
1500888955.0,286048482.8,Y
1500888955.9,286048482.8,N
1500888975.8,286049878.9,N
1500888995.6,286049876.9,N
1500889015.4,286049876.5,N
1500889065.3,286049876.9,Y
1500889075.2,286048518.2,N
1500889095.0,286047002.4,N
1500889095.9,286047002.4,N
1500889115.8,286047002.7,N
1500889135.6,286047002.2,N
1500889155.4,286047002.3,N
1500889175.3,286046999.9,N
1500889195.1,286046999.8,N
1500889215.9,286047000.9,N
1500889235.7,286047000.2,N
1500889255.5,286047002.2,N
1500889275.4,286047002.7,N
1500889295.2,286047002.7,N
1500889315.0,286046999.9,N
1500889316.0,286046999.9,N
1500889335.8,286047000.6,N
1500889355.6,286047000.3,N
1500889375.5,286046998.9,N
1500889395.3,286046998.3,N
1500889415.1,286046998.6,N
1500889435.9,286047000.9,N
1500889455.7,286047001.1,N
1500889475.6,286046998.1,N
1500889495.4,286047000.6,N
1500889515.2,286047002.8,N
1500889535.1,286046999.7,N
1500889536.0,286046999.7,N
1500889555.8,286047000.3,N
1500889575.6,286047000.2,N
1500889595.5,286046999.8,N
1500889615.3,286047002.3,N
1500889635.2,286047002.8,N
1500889655.9,286047002.7,N
1500889675.7,286047000.4,N
1500889695.6,286046999.8,N
1500889715.4,286047002.4,N
1500889735.2,286046999.9,N
1500889755.1,286047002.8,N
1500889756.0,286047002.8,N
1500889775.8,286047001.9,N
1500889795.7,286047004.4,Y
1500889815.5,286047001.0,N
1500889835.3,286047000.8,N
1500889855.2,286047000.4,N
1500889875.0,286047011.9,Y
1500889875.9,286047001.2,N
1500889895.7,286046997.0,N
1500889915.6,286046999.6,N
1500889935.4,286046998.4,N
1500889955.3,286046999.1,N
1500889975.1,286046996.8,N
1500889976.0,286046996.8,N
1500889995.8,286046997.8,N
1500890015.7,286046997.5,N
1500890035.5,286046994.9,N
1500890055.3,286046997.0,N
1500890075.2,286046999.1,N
1500890095.0,286046997.0,N
1500890095.9,286046997.0,N
1500890115.8,286046997.2,N
1500890135.6,286046996.9,N
1500890155.4,286046999.6,N
1500890175.3,286046997.3,N
1500890195.1,286046996.7,N
1500890215.8,286046999.4,N
1500890235.7,286046997.1,N
1500890255.5,286046996.6,N
1500890275.4,286046999.0,N
1500890295.2,286046999.2,N
1500890315.0,286046997.1,N
1500890315.9,286046997.1,N
1500890335.8,286046998.2,N
1500890355.6,286046997.1,N
1500890375.4,286046999.2,N
1500890395.3,286046998.3,N
